Flag for Macedonia, Republic of Weather past 2 weeks in Ohrid, Macedonia, Republic of

Now
81 °F

Passing clouds.


Feels Like: 81 °F
Forecast: 60 / 88 °F
Wind: 5 mph from South

Location: Ohrid Airport

Current Time: Jul 28, 2015 at 8:10:26 PM

Latest Report: Jul 28, 2015 at 7:30 PM


Visibility: N/A

Pressure: 29.86 "Hg (27.59 "Hg at 696m altitude)

Humidity: 51%

Dew point: 61 °F

Location of OhridLocation

Historic Weather in Ohrid — Graph

°F

Ohrid temperature yesterday

Maximum temperature yesterday: 86 °F (at 3:30 PM)
Minimum temperature yesterday: 57 °F (at 4:30 AM)
Average temperature yesterday: 72 °F

Past Weeks' High & Low Weather Summary

 TemperatureHumidityPressure
High91 °F (Jul 21, 4:00 PM)88% (Jul 14, 5:30 AM)30.21 "Hg (Jul 14, 5:30 AM)
Low54 °F (Jul 14, 5:30 AM)23% (Jul 15, 6:00 PM)29.83 "Hg (Jul 27, 2:30 PM)
Average76 °F54%30.02 "Hg
* Reported Jul 14 5:30 AM — Jul 28 7:00 PM, Ohrid, Weather by CustomWeather, © 2015

Note: Actual official high and low records may vary slightly from our data, if they occured in-between our weather recording intervals... More about our weather records

Advertising

Ohrid weather history for previous 24 hours

 ConditionsComfort  
Time TempWeatherWind HumidityBarometerVisibility
7:00 PM
Tue, Jul 28
84 °FPassing clouds.5 mph43%29.86 "HgN/A
6:30 PM84 °FPassing clouds.7 mph40%29.86 "HgN/A
6:00 PM84 °FPassing clouds.6 mph43%29.83 "HgN/A
5:30 PM86 °FPassing clouds.7 mph40%29.83 "HgN/A
5:00 PM86 °FPassing clouds.8 mph38%29.83 "HgN/A
4:30 PM86 °FPassing clouds.8 mph33%29.86 "HgN/A
4:00 PM88 °FPassing clouds.9 mph38%29.86 "HgN/A
3:30 PM86 °FPassing clouds.6 mph40%29.86 "HgN/A
3:00 PM84 °FPassing clouds.6 mph43%29.86 "HgN/A
2:30 PM82 °FPassing clouds.5 mph42%29.86 "HgN/A
2:00 PM82 °FPassing clouds.5 mph40%29.86 "HgN/A
1:30 PM82 °FPassing clouds.5 mph35%29.86 "HgN/A
1:00 PM82 °FPassing clouds.6 mph35%29.86 "HgN/A
12:30 PM81 °FPassing clouds.6 mph42%29.89 "HgN/A
12:00 PM79 °FPassing clouds.6 mph51%29.89 "HgN/A
11:30 AM79 °FPassing clouds.7 mph51%29.89 "HgN/A
11:00 AM79 °FPassing clouds.7 mph51%29.89 "HgN/A
10:30 AM79 °FSunny.6 mph48%29.89 "Hg10 mi
10:00 AM77 °FSunny.6 mph54%29.89 "Hg10 mi
9:30 AM77 °FPassing clouds.No wind54%29.89 "HgN/A
9:00 AM79 °FPassing clouds.No wind51%29.89 "HgN/A
8:30 AM75 °FSunny.No wind57%29.89 "Hg10 mi
8:00 AM72 °FSunny.No wind65%29.89 "Hg10 mi
7:30 AM70 °FSunny.2 mph69%29.89 "Hg10 mi
7:00 AM64 °FSunny.5 mph83%29.89 "Hg10 mi
6:30 AM57 °FSunny.6 mph88%29.89 "Hg10 mi
6:00 AM55 °FClear.3 mph88%29.89 "Hg10 mi
Weather by CustomWeather, © 2015

See weather overviewHow to use our weather pages